Weather in Pokrovske

Ukraine / Poltava Region     50°02′23″N   33°19′17″E
temp.,
°C
wind,
m/s
gust,
m/s
humid.,
%
clouds,
%
prec.,
mm/h
press.,
hPa
HPBL,
m
15 april, thu
thu1500:00+9s1292100 3.3 101488
03:00+9sw2392100 7.1 1013129
06:00+9sse2390100 0.6 101284
09:00+10s3477100 0.6 1013317
12:00+12se245989 0.0 10121187
15:00+13se3358100 0.2 10111085
18:00+13sse236466 1.3 1010801
21:00+9s238396 2.2 101151
16 april, fri
fri1600:00+9s1288100 0.6 101043
03:00+8s3694100 2.1 1010350
06:00+8sse3793100 0.8 1011442
09:00+9s5886100 0.9 1011625
12:00+10s687794 0.1 1013857
15:00+11s776895 1.3 10131291
18:00+8s568183 0.3 1014724
21:00+6s4581100 0.3 1016566
17 april, sat
sat1700:00+5sse359380 0.0 1016208
03:00+4se349498 0.0 1017185
06:00+5se2293100 0.1 1018173
09:00+6w3391100 0.3 1020401
12:00+6w458897 0.1 1021565
15:00+8wsw557297 0.1 1021875
18:00+8wnw467281 0.1 1021866
21:00+5wnw238577 0.1 102153
18 april, sun
sun1800:00+6nnw2284100 0.0 102260
03:00+5nw22875 0.0 102118
06:00+3nw239258 0.0 102045
09:00+8wnw3574100 0.0 1020397
12:00+12nw56587 0.0 10191083
15:00+14nnw555283 0.0 10191582
18:00+10nne578195 0.0 1019505
21:00+9nne3886100 0.0 1020373
19 april, mon
mon1900:00+5ene49856 0.0 1020269
03:00+4ne368796 0.0 1020135
06:00+4ne4891100 0.0 1020174
09:00+8ene5980100 0.0 1020526
12:00+12ene7862100 0.0 10191205
15:00+13ene8958100 0.0 10181303
18:00+12ene71063100 0.0 10171290
21:00+9ene81467100 0.0 1016963